Powrót do katalogu

DELTA 1 DEB

AktywnySSO
NORAD 7160·DEBRIS·🇺🇸 United States

Wystrzelony Nov 6, 1973 z Vandenberg Space Force Base

Loading…

Następne Przeloty (najbliższe 24 godziny)

TLE

ŚwieżeSource: Space-Track

Epoka: Sep 14, 2026, 08:01 UTC

1 07160U 73086DY  26257.33466907  .00000145  00000-0  14979-2 0  9990
2 07160 102.1326 220.9709 0078003 189.2264 333.3156 12.35288099376793

Śledź DELTA 1 DEB w czasie rzeczywistym z AllMySat

Download on the App Store